NOAA 16 DEB

基本信息
目录编号:
42388
目录名称:
NOAA 16 DEB
国际标识:
2000-055SG
轨道中心:
EARTH
物体状态:
在轨
发射日期:
2000-09-21 UTC
轨道信息
数据来源: 国际轨道数据
星历时间: 2026-07-13T09:20:27+0800
半长轴: 7165.216km
偏心率: 0.0014955
轨道倾角: 98.599°
近地点辐角: 210.284°
升交点赤经: 233.523°
平近点角: 149.748°
近地点: 776.363km
远地点: 797.795km
周期: 100.601分钟
每日圈数: 14.31393
详细信息
发射场:
AFWTR
轨道高度:
LEO
数据来源:
AOE Integration Group
参考系:
TEME
时间系统:
UTC
历元类型:
SGP4
2D轨道图
3D轨道图
轨道高度分析图
轨道倾角分析图
轨道综合分析图
查看轨道综合分析图